,,,PA_Meas_PMT16A,,PR_Meas_QMR101_102,,RH_Meas_QMH101,,SR_Meas_QMS101,,TA_Meas_QMH101,,GenWind,,GenWind,
date,time,status,PA,status,PR,status,RH,status,SR,status,TA,status,DirAvg,status,SpdAvg,
2011-06-18, 00:00:04,VALID,1005.31,VALID,0,INVALID,163.586,VALID,0.100563,VALID,26.2524,VALID,298,VALID,0,
2011-06-18, 00:01:04,VALID,1005.28,VALID,0,INVALID,163.563,VALID,0.100563,VALID,26.2524,VALID,249,VALID,0,
2011-06-18, 00:02:04,VALID,1005.28,VALID,0,INVALID,163.563,VALID,0.100563,VALID,26.2329,VALID,207,VALID,0,
2011-06-18, 00:03:04,VALID,1005.26,VALID,0,INVALID,163.586,VALID,0.100563,VALID,26.2134,VALID,202,VALID,0,
2011-06-18, 00:04:04,VALID,1005.24,VALID,0,INVALID,163.563,VALID,0.100563,VALID,26.2134,VALID,210,VALID,0,
2011-06-18, 00:05:04,VALID,1005.25,VALID,0,INVALID,163.586,VALID,0,VALID,26.2154,VALID,263,VALID,0,
2011-06-18, 00:06:04,VALID,1005.23,VALID,0,INVALID,163.586,VALID,0.100563,VALID,26.194,VALID,304,VALID,0,
2011-06-18, 00:07:04,VALID,1005.23,VALID,0,INVALID,163.563,VALID,0.100563,VALID,26.1745,VALID,304,VALID,0,
2011-06-18, 00:08:04,VALID,1005.27,VALID,0,INVALID,163.586,VALID,0.100563,VALID,26.1745,VALID,305,VALID,0,
2011-06-18, 00:09:04,VALID,1005.26,VALID,0,INVALID,163.578,VALID,0.100563,VALID,26.1745,VALID,305,VALID,0,
2011-06-18, 00:10:04,VALID,1005.26,VALID,0,INVALID,163.571,VALID,0,VALID,26.155,VALID,324,VALID,0,
2011-06-18, 00:11:04,VALID,1005.25,VALID,0,INVALID,163.578,VALID,0.100563,VALID,26.155,VALID,298,VALID,0,
2011-06-18, 00:12:04,VALID,1005.23,VALID,0,INVALID,163.578,VALID,0.100563,VALID,26.1745,VALID,299,VALID,0,
2011-06-18, 00:13:04,VALID,1005.24,VALID,0,INVALID,163.586,VALID,0,VALID,26.1745,VALID,272,VALID,0,
2011-06-18, 00:14:04,VALID,1005.25,VALID,0,INVALID,163.578,VALID,0.100563,VALID,26.1745,VALID,324,VALID,0,
2011-06-18, 00:15:04,VALID,1005.22,VALID,0,INVALID,163.601,VALID,0.100563,VALID,26.194,VALID,259,VALID,0,
2011-06-18, 00:16:04,VALID,1005.21,VALID,0,INVALID,163.578,VALID,0.100563,VALID,26.2349,VALID,220,VALID,0,
2011-06-18, 00:17:04,VALID,1005.18,VALID,0,INVALID,163.578,VALID,0.100563,VALID,26.2134,VALID,212,VALID,0,
2011-06-18, 00:18:04,VALID,1005.2,VALID,0,INVALID,163.571,VALID,0.100563,VALID,26.2134,VALID,256,VALID,0,
2011-06-18, 00:19:04,VALID,1005.16,VALID,0,INVALID,163.586,VALID,0,VALID,26.2134,VALID,334,VALID,0,
2011-06-18, 00:20:04,VALID,1005.17,VALID,0,INVALID,163.578,VALID,0.100563,VALID,26.2329,VALID,293,VALID,0,
2011-06-18, 00:21:04,VALID,1005.13,VALID,0,INVALID,163.571,VALID,0.100563,VALID,26.2329,VALID,262,VALID,0,
2011-06-18, 00:22:04,VALID,1005.13,VALID,0,INVALID,163.563,VALID,0.100563,VALID,26.2544,VALID,330,VALID,0,
2011-06-18, 00:23:04,VALID,1005.12,VALID,0,INVALID,163.571,VALID,0,VALID,26.2329,VALID,290,VALID,0,
2011-06-18, 00:24:04,VALID,1005.13,VALID,0,INVALID,163.601,VALID,0,VALID,26.2329,VALID,229,VALID,0,
2011-06-18, 00:25:04,VALID,1005.14,VALID,0,INVALID,163.54,VALID,0.100563,VALID,26.2329,VALID,299,VALID,0,
2011-06-18, 00:26:04,VALID,1005.15,VALID,0,INVALID,163.571,VALID,0.100563,VALID,26.2329,VALID,257,VALID,0,
2011-06-18, 00:27:04,VALID,1005.11,VALID,0,INVALID,163.563,VALID,0.100563,VALID,26.2134,VALID,275,VALID,0,
2011-06-18, 00:28:04,VALID,1005.12,VALID,0,INVALID,163.571,VALID,0.100563,VALID,26.2134,VALID,318,VALID,0,
2011-06-18, 00:29:04,VALID,1005.15,VALID,0,INVALID,163.578,VALID,0.100563,VALID,26.2134,VALID,253,VALID,0,
2011-06-18, 00:30:04,VALID,1005.11,VALID,0,INVALID,163.594,VALID,0,VALID,26.2134,VALID,285,VALID,0,
2011-06-18, 00:31:04,VALID,1005.11,VALID,0,INVALID,163.586,VALID,0,VALID,26.2134,VALID,315,VALID,0,
2011-06-18, 00:32:04,VALID,1005.13,VALID,0,INVALID,163.594,VALID,0,VALID,26.2154,VALID,313,VALID,0,
2011-06-18, 00:33:04,VALID,1005.12,VALID,0,INVALID,163.571,VALID,0,VALID,26.2154,VALID,316,VALID,0,
2011-06-18, 00:34:04,VALID,1005.09,VALID,0,INVALID,163.586,VALID,0,VALID,26.1959,VALID,274,VALID,0,
2011-06-18, 00:35:04,VALID,1005.09,VALID,0,INVALID,163.601,VALID,0,VALID,26.1355,VALID,5,VALID,0,
2011-06-18, 00:36:04,VALID,1005.1,VALID,0,INVALID,163.594,VALID,0,VALID,26.0966,VALID,9,VALID,0,
2011-06-18, 00:37:04,VALID,1005.11,VALID,0,INVALID,163.601,VALID,0,VALID,26.0576,VALID,347,VALID,0,
2011-06-18, 00:38:04,VALID,1005.09,VALID,0,INVALID,163.601,VALID,0,VALID,26.0791,VALID,344,VALID,0,
2011-06-18, 00:39:04,VALID,1005.11,VALID,0,INVALID,163.594,VALID,0,VALID,26.0381,VALID,294,VALID,0,
2011-06-18, 00:40:04,VALID,1005.09,VALID,0,INVALID,163.586,VALID,0,VALID,25.9992,VALID,294,VALID,0,
2011-06-18, 00:41:04,VALID,1005.1,VALID,0,INVALID,163.594,VALID,0.100563,VALID,25.9797,VALID,293,VALID,0,
2011-06-18, 00:42:04,VALID,1005.1,VALID,0,INVALID,163.594,VALID,0.100563,VALID,25.9797,VALID,241,VALID,0,
2011-06-18, 00:43:04,VALID,1005.1,VALID,0,INVALID,163.617,VALID,0,VALID,25.9602,VALID,235,VALID,0,
2011-06-18, 00:44:04,VALID,1005.05,VALID,0,INVALID,163.563,VALID,0,VALID,26.0206,VALID,236,VALID,0,
2011-06-18, 00:45:04,VALID,1005.07,VALID,0,INVALID,163.586,VALID,0,VALID,26.0187,VALID,225,VALID,0,
2011-06-18, 00:46:04,VALID,1005.07,VALID,0,INVALID,163.617,VALID,0.100563,VALID,26.0187,VALID,225,VALID,0,
2011-06-18, 00:47:04,VALID,1005.04,VALID,0,INVALID,163.609,VALID,0,VALID,26.0381,VALID,217,VALID,0,
2011-06-18, 00:48:04,VALID,1005.05,VALID,0,INVALID,163.594,VALID,0,VALID,26.0187,VALID,217,VALID,0,
2011-06-18, 00:49:04,VALID,1005.04,VALID,0,INVALID,163.586,VALID,0.100563,VALID,26.0381,VALID,217,VALID,0,
2011-06-18, 00:50:04,VALID,1005.03,VALID,0,INVALID,163.601,VALID,0,VALID,26.0381,VALID,221,VALID,0,
2011-06-18, 00:51:04,VALID,1005.03,VALID,0,INVALID,163.571,VALID,0.100563,VALID,26.0187,VALID,241,VALID,0,
2011-06-18, 00:52:04,VALID,1005.01,VALID,0,INVALID,163.609,VALID,0,VALID,26.0381,VALID,241,VALID,0,
2011-06-18, 00:53:04,VALID,1005.04,VALID,0,INVALID,163.586,VALID,0,VALID,26.0381,VALID,241,VALID,0,
2011-06-18, 00:54:04,VALID,1005.03,VALID,0,INVALID,163.578,VALID,0,VALID,26.0401,VALID,241,VALID,0,
2011-06-18, 00:55:04,VALID,1005.01,VALID,0,INVALID,163.594,VALID,0,VALID,26.0187,VALID,313,VALID,0,
2011-06-18, 00:56:04,VALID,1005.05,VALID,0,INVALID,163.601,VALID,0,VALID,25.9797,VALID,313,VALID,0,
2011-06-18, 00:57:04,VALID,1005.05,VALID,0,INVALID,163.571,VALID,0.100563,VALID,26.0012,VALID,313,VALID,0,
2011-06-18, 00:58:04,VALID,1005.05,VALID,0,INVALID,163.609,VALID,0,VALID,25.9797,VALID,311,VALID,0,
2011-06-18, 00:59:04,VALID,1005.02,VALID,0,INVALID,163.609,VALID,0.100563,VALID,25.9797,VALID,311,VALID,0,
2011-06-18, 01:00:04,VALID,1005.01,VALID,0,INVALID,163.609,VALID,0,VALID,25.9388,VALID,311,VALID,0,
2011-06-18, 01:01:04,VALID,1005,VALID,0,INVALID,163.601,VALID,0,VALID,25.9622,VALID,309,VALID,0,
2011-06-18, 01:02:04,VALID,1005.02,VALID,0,INVALID,163.594,VALID,0.100563,VALID,25.9602,VALID,311,VALID,0,
2011-06-18, 01:03:04,VALID,1005,VALID,0,INVALID,163.594,VALID,0,VALID,25.9408,VALID,336,VALID,0,
2011-06-18, 01:04:04,VALID,1005,VALID,0,INVALID,163.617,VALID,0,VALID,25.9427,VALID,341,VALID,0,
2011-06-18, 01:05:04,VALID,1004.99,VALID,0,INVALID,163.632,VALID,0.100563,VALID,25.9038,VALID,342,VALID,0,
2011-06-18, 01:06:04,VALID,1004.96,VALID,0,INVALID,163.609,VALID,0,VALID,25.8648,VALID,340,VALID,0,
2011-06-18, 01:07:04,VALID,1004.95,VALID,0,INVALID,163.609,VALID,0,VALID,25.8259,VALID,345,VALID,0,
2011-06-18, 01:08:04,VALID,1004.94,VALID,0,INVALID,163.601,VALID,0,VALID,25.785,VALID,322,VALID,0,
2011-06-18, 01:09:04,VALID,1004.93,VALID,0,INVALID,163.617,VALID,0,VALID,25.8064,VALID,325,VALID,0,
2011-06-18, 01:10:04,VALID,1004.93,VALID,0,INVALID,163.586,VALID,0,VALID,25.7655,VALID,309,VALID,0,
2011-06-18, 01:11:04,VALID,1004.89,VALID,0,INVALID,163.609,VALID,0,VALID,25.7655,VALID,306,VALID,0,
2011-06-18, 01:12:04,VALID,1004.89,VALID,0,INVALID,163.609,VALID,0,VALID,25.8044,VALID,305,VALID,0,
2011-06-18, 01:13:04,VALID,1004.86,VALID,0,INVALID,163.586,VALID,0.100563,VALID,25.8648,VALID,308,VALID,0,
2011-06-18, 01:14:04,VALID,1004.84,VALID,0,INVALID,163.617,VALID,0.100563,VALID,25.8434,VALID,308,VALID,0,
2011-06-18, 01:15:04,VALID,1004.81,VALID,0,INVALID,163.639,VALID,0.100563,VALID,25.8239,VALID,309,VALID,0,
2011-06-18, 01:16:04,VALID,1004.79,VALID,0,INVALID,163.609,VALID,0,VALID,25.8044,VALID,355,VALID,0,
2011-06-18, 01:17:04,VALID,1004.79,VALID,0,INVALID,163.624,VALID,0,VALID,25.785,VALID,333,VALID,0,
2011-06-18, 01:18:04,VALID,1004.75,VALID,0,INVALID,163.617,VALID,0,VALID,25.7674,VALID,333,VALID,0,
2011-06-18, 01:19:04,VALID,1004.72,VALID,0,INVALID,163.624,VALID,0,VALID,25.7071,VALID,338,VALID,0,
2011-06-18, 01:20:04,VALID,1004.69,VALID,0,INVALID,163.624,VALID,0.100563,VALID,25.6876,VALID,337,VALID,0,
2011-06-18, 01:21:04,VALID,1004.67,VALID,0,INVALID,163.639,VALID,0,VALID,25.6681,VALID,337,VALID,0,
2011-06-18, 01:22:04,VALID,1004.66,VALID,0,INVALID,163.609,VALID,0,VALID,25.67,VALID,337,VALID,0,
2011-06-18, 01:23:04,VALID,1004.62,VALID,0,INVALID,163.624,VALID,0,VALID,25.6292,VALID,337,VALID,0,
2011-06-18, 01:24:04,VALID,1004.6,VALID,0,INVALID,163.647,VALID,0,VALID,25.5902,VALID,337,VALID,0,
2011-06-18, 01:25:04,VALID,1004.59,VALID,0,INVALID,163.609,VALID,0.100563,VALID,25.5902,VALID,338,VALID,0,
2011-06-18, 01:26:04,VALID,1004.54,VALID,0,INVALID,163.632,VALID,0,VALID,25.5337,VALID,338,VALID,0,
2011-06-18, 01:27:04,VALID,1004.52,VALID,0,INVALID,163.632,VALID,0,VALID,25.4967,VALID,338,VALID,0,
2011-06-18, 01:28:04,VALID,1004.51,VALID,0,INVALID,163.647,VALID,0,VALID,25.4558,VALID,320,VALID,0,
2011-06-18, 01:29:04,VALID,1004.48,VALID,0,INVALID,163.617,VALID,0,VALID,25.4753,VALID,311,VALID,0,
2011-06-18, 01:30:04,VALID,1004.47,VALID,0,INVALID,163.639,VALID,0.100563,VALID,25.4325,VALID,330,VALID,0,
2011-06-18, 01:31:04,VALID,1004.46,VALID,0,INVALID,163.632,VALID,0.100563,VALID,25.4539,VALID,320,VALID,0,
2011-06-18, 01:32:04,VALID,1004.42,VALID,0,INVALID,163.639,VALID,0.100563,VALID,25.4539,VALID,318,VALID,0,
2011-06-18, 01:33:04,VALID,1004.45,VALID,0,INVALID,163.632,VALID,0.100563,VALID,25.4734,VALID,315,VALID,0,
2011-06-18, 01:34:04,VALID,1004.46,VALID,0.5,INVALID,163.632,VALID,0,VALID,25.4948,VALID,336,VALID,0,
2011-06-18, 01:35:04,VALID,1004.42,VALID,0,INVALID,163.632,VALID,0.100563,VALID,25.4734,VALID,293,VALID,0,
2011-06-18, 01:36:04,VALID,1004.39,VALID,0,INVALID,163.632,VALID,0.100563,VALID,25.4539,VALID,342,VALID,0,
2011-06-18, 01:37:04,VALID,1004.38,VALID,0,INVALID,163.647,VALID,0.100563,VALID,25.4344,VALID,311,VALID,0,
2011-06-18, 01:38:04,VALID,1004.37,VALID,0,INVALID,163.655,VALID,0.100563,VALID,25.4149,VALID,340,VALID,0,
2011-06-18, 01:39:04,VALID,1004.35,VALID,0,INVALID,163.639,VALID,0.100563,VALID,25.376,VALID,353,VALID,0,
2011-06-18, 01:40:04,VALID,1004.34,VALID,0,INVALID,163.647,VALID,0.100563,VALID,25.3176,VALID,352,VALID,0,
2011-06-18, 01:41:04,VALID,1004.35,VALID,0,INVALID,163.655,VALID,0.100563,VALID,25.3195,VALID,351,VALID,0,
2011-06-18, 01:42:04,VALID,1004.32,VALID,0,INVALID,163.662,VALID,0,VALID,25.2592,VALID,350,VALID,0,
2011-06-18, 01:43:04,VALID,1004.34,VALID,0,INVALID,163.655,VALID,0.100563,VALID,25.2202,VALID,350,VALID,0,
2011-06-18, 01:44:04,VALID,1004.33,VALID,0,INVALID,163.693,VALID,0.100563,VALID,25.1988,VALID,356,VALID,0,
2011-06-18, 01:45:04,VALID,1004.36,VALID,0,INVALID,163.701,VALID,0,VALID,25.1618,VALID,354,VALID,0,
2011-06-18, 01:46:04,VALID,1004.37,VALID,0,INVALID,163.67,VALID,0,VALID,25.1851,VALID,353,VALID,0,
2011-06-18, 01:47:04,VALID,1004.34,VALID,0,INVALID,163.639,VALID,0,VALID,25.1229,VALID,353,VALID,0,
2011-06-18, 01:48:04,VALID,1004.32,VALID,0,INVALID,163.647,VALID,0,VALID,25.1248,VALID,353,VALID,0,
2011-06-18, 01:49:04,VALID,1004.31,VALID,0,INVALID,163.685,VALID,0,VALID,25.1053,VALID,353,VALID,0,
2011-06-18, 01:50:04,VALID,1004.28,VALID,0,INVALID,163.655,VALID,0,VALID,25.0858,VALID,354,VALID,0,
2011-06-18, 01:51:04,VALID,1004.3,VALID,0,INVALID,163.685,VALID,0,VALID,25.0663,VALID,354,VALID,0,
2011-06-18, 01:52:04,VALID,1004.29,VALID,0,INVALID,163.693,VALID,0,VALID,25.0469,VALID,354,VALID,0,
2011-06-18, 01:53:04,VALID,1004.27,VALID,0,INVALID,163.662,VALID,0,VALID,25.0488,VALID,354,VALID,0,
2011-06-18, 01:54:04,VALID,1004.27,VALID,0,INVALID,163.67,VALID,0,VALID,25.0274,VALID,350,VALID,0,
2011-06-18, 01:55:04,VALID,1004.27,VALID,0,INVALID,163.67,VALID,0,VALID,25.0079,VALID,350,VALID,0,
2011-06-18, 01:56:04,VALID,1004.28,VALID,0,INVALID,163.678,VALID,0,VALID,24.9885,VALID,350,VALID,0,
2011-06-18, 01:57:04,VALID,1004.27,VALID,0,INVALID,163.67,VALID,0,VALID,24.969,VALID,355,VALID,0,
2011-06-18, 01:58:04,VALID,1004.27,VALID,0,INVALID,163.685,VALID,0,VALID,24.9495,VALID,355,VALID,0,
2011-06-18, 01:59:04,VALID,1004.24,VALID,0,INVALID,163.685,VALID,0,VALID,24.93,VALID,295,VALID,0,
2011-06-18, 02:00:04,VALID,1004.26,VALID,0,INVALID,163.678,VALID,0,VALID,24.93,VALID,295,VALID,0,
2011-06-18, 02:01:04,VALID,1004.24,VALID,0.5,INVALID,163.662,VALID,0,VALID,24.9282,VALID,295,VALID,0,
2011-06-18, 02:02:04,VALID,1004.2,VALID,0,INVALID,163.639,VALID,0,VALID,24.969,VALID,295,VALID,0,
2011-06-18, 02:03:04,VALID,1004.2,VALID,0,INVALID,163.701,VALID,0,VALID,24.9495,VALID,309,VALID,0,
2011-06-18, 02:04:04,VALID,1004.2,VALID,0,INVALID,163.655,VALID,0,VALID,24.9495,VALID,355,VALID,0,
2011-06-18, 02:05:04,VALID,1004.18,VALID,0,INVALID,163.685,VALID,0,VALID,24.9106,VALID,29,VALID,0,
2011-06-18, 02:06:04,VALID,1004.19,VALID,0,INVALID,163.678,VALID,0,VALID,24.8716,VALID,29,VALID,0,
2011-06-18, 02:07:04,VALID,1004.21,VALID,0,INVALID,163.678,VALID,0,VALID,24.8522,VALID,29,VALID,0,
2011-06-18, 02:08:04,VALID,1004.2,VALID,0,INVALID,163.685,VALID,0,VALID,24.8522,VALID,29,VALID,0,
2011-06-18, 02:09:04,VALID,1004.2,VALID,0,INVALID,163.693,VALID,0,VALID,24.8327,VALID,29,VALID,0,
2011-06-18, 02:10:04,VALID,1004.21,VALID,0,INVALID,163.685,VALID,0,VALID,24.8132,VALID,29,VALID,0,
2011-06-18, 02:11:04,VALID,1004.2,VALID,0,INVALID,163.701,VALID,0,VALID,24.7743,VALID,29,VALID,0,
2011-06-18, 02:12:04,VALID,1004.22,VALID,0,INVALID,163.685,VALID,0,VALID,24.7548,VALID,29,VALID,0,
2011-06-18, 02:13:04,VALID,1004.22,VALID,0,INVALID,163.708,VALID,0,VALID,24.7353,VALID,29,VALID,0,
2011-06-18, 02:14:04,VALID,1004.21,VALID,0,INVALID,163.716,VALID,0,VALID,24.7159,VALID,29,VALID,0,
2011-06-18, 02:15:04,VALID,1004.19,VALID,0,INVALID,163.708,VALID,0,VALID,24.6769,VALID,29,VALID,0,
2011-06-18, 02:16:04,VALID,1004.19,VALID,0,INVALID,163.731,VALID,0,VALID,24.6574,VALID,29,VALID,0,
2011-06-18, 02:17:04,VALID,1004.19,VALID,0,INVALID,163.693,VALID,0,VALID,24.6788,VALID,29,VALID,0,
2011-06-18, 02:18:04,VALID,1004.15,VALID,0,INVALID,163.701,VALID,0,VALID,24.638,VALID,29,VALID,0,
2011-06-18, 02:19:04,VALID,1004.13,VALID,0,INVALID,163.685,VALID,0,VALID,24.6574,VALID,29,VALID,0,
2011-06-18, 02:20:04,VALID,1004.14,VALID,0,INVALID,163.723,VALID,0,VALID,24.6185,VALID,12,VALID,0,
2011-06-18, 02:21:04,VALID,1004.11,VALID,0,INVALID,163.723,VALID,0,VALID,24.6398,VALID,9,VALID,0,
2011-06-18, 02:22:04,VALID,1004.12,VALID,0,INVALID,163.693,VALID,0,VALID,24.6185,VALID,9,VALID,0,
2011-06-18, 02:23:04,VALID,1004.09,VALID,0,INVALID,163.693,VALID,0,VALID,24.6185,VALID,9,VALID,0,
2011-06-18, 02:24:04,VALID,1004.11,VALID,0,INVALID,163.693,VALID,0,VALID,24.599,VALID,330,VALID,0,
2011-06-18, 02:25:04,VALID,1004.08,VALID,0,INVALID,163.723,VALID,0,VALID,24.6185,VALID,6,VALID,0,
2011-06-18, 02:26:04,VALID,1004.08,VALID,0,INVALID,163.693,VALID,0,VALID,24.6185,VALID,3,VALID,0,
2011-06-18, 02:27:04,VALID,1004.07,VALID,0,INVALID,163.685,VALID,0,VALID,24.6398,VALID,351,VALID,0,
2011-06-18, 02:28:04,VALID,1004.06,VALID,0,INVALID,163.685,VALID,0,VALID,24.6185,VALID,356,VALID,0,
2011-06-18, 02:29:04,VALID,1004.04,VALID,0,INVALID,163.708,VALID,0,VALID,24.6185,VALID,356,VALID,0,
2011-06-18, 02:30:04,VALID,1004.04,VALID,0,INVALID,163.708,VALID,0,VALID,24.6185,VALID,356,VALID,0,
2011-06-18, 02:31:04,VALID,1004.01,VALID,0,INVALID,163.685,VALID,0,VALID,24.6204,VALID,356,VALID,0,
2011-06-18, 02:32:04,VALID,1004.03,VALID,0,INVALID,163.693,VALID,0,VALID,24.599,VALID,356,VALID,0,
2011-06-18, 02:33:04,VALID,1004.02,VALID,0,INVALID,163.693,VALID,0,VALID,24.599,VALID,356,VALID,0,
2011-06-18, 02:34:04,VALID,1003.99,VALID,0,INVALID,163.716,VALID,0,VALID,24.599,VALID,358,VALID,0,
2011-06-18, 02:35:04,VALID,1004,VALID,0,INVALID,163.708,VALID,0,VALID,24.5777,VALID,294,VALID,0,
2011-06-18, 02:36:04,VALID,1004.01,VALID,0,INVALID,163.701,VALID,0,VALID,24.638,VALID,348,VALID,0,
2011-06-18, 02:37:04,VALID,1004,VALID,0,INVALID,163.693,VALID,0,VALID,24.6964,VALID,359,VALID,0,
2011-06-18, 02:38:04,VALID,1003.97,VALID,0,INVALID,163.723,VALID,0,VALID,24.7743,VALID,345,VALID,0,
2011-06-18, 02:39:04,VALID,1003.98,VALID,0,INVALID,163.685,VALID,0,VALID,24.7724,VALID,345,VALID,0,
2011-06-18, 02:40:04,VALID,1003.99,VALID,0,INVALID,163.647,VALID,0,VALID,24.7743,VALID,345,VALID,0,
2011-06-18, 02:41:04,VALID,1003.98,VALID,0,INVALID,163.693,VALID,0,VALID,24.7548,VALID,345,VALID,0,
2011-06-18, 02:42:04,VALID,1003.96,VALID,0,INVALID,163.693,VALID,0,VALID,24.7372,VALID,345,VALID,0,
2011-06-18, 02:43:04,VALID,1003.95,VALID,0,INVALID,163.708,VALID,0,VALID,24.6769,VALID,345,VALID,0,
2011-06-18, 02:44:04,VALID,1003.98,VALID,0,INVALID,163.739,VALID,0,VALID,24.6769,VALID,345,VALID,0,
2011-06-18, 02:45:04,VALID,1004,VALID,0,INVALID,163.723,VALID,0,VALID,24.6574,VALID,345,VALID,0,
2011-06-18, 02:46:04,VALID,1003.99,VALID,0,INVALID,163.716,VALID,0,VALID,24.6556,VALID,345,VALID,0,
2011-06-18, 02:47:04,VALID,1003.97,VALID,0,INVALID,163.701,VALID,0,VALID,24.6574,VALID,345,VALID,0,
2011-06-18, 02:48:04,VALID,1003.96,VALID,0,INVALID,163.701,VALID,0,VALID,24.6574,VALID,345,VALID,0,
2011-06-18, 02:49:04,VALID,1003.94,VALID,0,INVALID,163.685,VALID,0,VALID,24.6361,VALID,345,VALID,0,
2011-06-18, 02:50:04,VALID,1003.97,VALID,0,INVALID,163.701,VALID,0,VALID,24.638,VALID,346,VALID,0,
2011-06-18, 02:51:04,VALID,1003.96,VALID,0,INVALID,163.701,VALID,0,VALID,24.6185,VALID,346,VALID,0,
2011-06-18, 02:52:04,VALID,1003.95,VALID,0,INVALID,163.716,VALID,0,VALID,24.599,VALID,346,VALID,0,
2011-06-18, 02:53:04,VALID,1003.97,VALID,0,INVALID,163.693,VALID,0,VALID,24.5972,VALID,356,VALID,0,
2011-06-18, 02:54:04,VALID,1003.99,VALID,0,INVALID,163.685,VALID,0,VALID,24.599,VALID,356,VALID,0,
2011-06-18, 02:55:04,VALID,1003.98,VALID,0,INVALID,163.693,VALID,0,VALID,24.5796,VALID,356,VALID,0,
2011-06-18, 02:56:04,VALID,1003.94,VALID,0,INVALID,163.701,VALID,0,VALID,24.5582,VALID,356,VALID,0,
2011-06-18, 02:57:04,VALID,1003.95,VALID,0,INVALID,163.685,VALID,0,VALID,24.5601,VALID,356,VALID,0,
2011-06-18, 02:58:04,VALID,1003.94,VALID,0,INVALID,163.723,VALID,0,VALID,24.5388,VALID,356,VALID,0,
2011-06-18, 02:59:04,VALID,1003.92,VALID,0,INVALID,163.685,VALID,0,VALID,24.5388,VALID,351,VALID,0,
2011-06-18, 03:00:04,VALID,1003.88,VALID,0,INVALID,163.716,VALID,0.100563,VALID,24.5582,VALID,350,VALID,0,
2011-06-18, 03:01:04,VALID,1003.85,VALID,0,INVALID,163.723,VALID,0,VALID,24.5796,VALID,350,VALID,0,
2011-06-18, 03:02:04,VALID,1003.85,VALID,0,INVALID,163.678,VALID,0,VALID,24.5796,VALID,350,VALID,0,
2011-06-18, 03:03:04,VALID,1003.83,VALID,0,INVALID,163.723,VALID,0,VALID,24.5601,VALID,350,VALID,0,
2011-06-18, 03:04:04,VALID,1003.8,VALID,0,INVALID,163.731,VALID,0,VALID,24.5796,VALID,349,VALID,0,
2011-06-18, 03:05:04,VALID,1003.78,VALID,0,INVALID,163.701,VALID,0,VALID,24.599,VALID,346,VALID,0,
2011-06-18, 03:06:04,VALID,1003.76,VALID,0,INVALID,163.716,VALID,0,VALID,24.599,VALID,352,VALID,0,
2011-06-18, 03:07:04,VALID,1003.77,VALID,0,INVALID,163.723,VALID,0,VALID,24.599,VALID,348,VALID,0,
2011-06-18, 03:08:04,VALID,1003.74,VALID,0,INVALID,163.716,VALID,0,VALID,24.5972,VALID,349,VALID,0,
2011-06-18, 03:09:04,VALID,1003.73,VALID,0,INVALID,163.716,VALID,0,VALID,24.638,VALID,360,VALID,0,
2011-06-18, 03:10:04,VALID,1003.7,VALID,0,INVALID,163.685,VALID,0,VALID,24.6166,VALID,360,VALID,0,
2011-06-18, 03:11:04,VALID,1003.66,VALID,0,INVALID,163.655,VALID,0,VALID,24.6361,VALID,360,VALID,0,
2011-06-18, 03:12:04,VALID,1003.64,VALID,0,INVALID,163.701,VALID,0.100563,VALID,24.6361,VALID,339,VALID,0,
2011-06-18, 03:13:04,VALID,1003.63,VALID,0,INVALID,163.685,VALID,0,VALID,24.6964,VALID,298,VALID,0,
2011-06-18, 03:14:04,VALID,1003.61,VALID,0,INVALID,163.693,VALID,0,VALID,24.7548,VALID,310,VALID,0,
2011-06-18, 03:15:04,VALID,1003.61,VALID,0,INVALID,163.708,VALID,0,VALID,24.8327,VALID,349,VALID,0,
2011-06-18, 03:16:04,VALID,1003.6,VALID,0,INVALID,163.685,VALID,0,VALID,24.8522,VALID,353,VALID,0,
2011-06-18, 03:17:04,VALID,1003.57,VALID,0,INVALID,163.701,VALID,0,VALID,24.893,VALID,353,VALID,0,
2011-06-18, 03:18:04,VALID,1003.58,VALID,0,INVALID,163.693,VALID,0,VALID,24.8911,VALID,351,VALID,0,
2011-06-18, 03:19:04,VALID,1003.57,VALID,0,INVALID,163.701,VALID,0,VALID,24.8716,VALID,346,VALID,0,
2011-06-18, 03:20:04,VALID,1003.54,VALID,0,INVALID,163.701,VALID,0,VALID,24.8716,VALID,353,VALID,0,
2011-06-18, 03:21:04,VALID,1003.56,VALID,0,INVALID,163.678,VALID,0,VALID,24.8911,VALID,341,VALID,0,
2011-06-18, 03:22:04,VALID,1003.55,VALID,0,INVALID,163.685,VALID,0,VALID,24.8503,VALID,342,VALID,0,
2011-06-18, 03:23:04,VALID,1003.57,VALID,0,INVALID,163.662,VALID,0,VALID,24.8327,VALID,345,VALID,0,
2011-06-18, 03:24:04,VALID,1003.56,VALID,0,INVALID,163.678,VALID,0,VALID,24.8132,VALID,13,VALID,0,
2011-06-18, 03:25:04,VALID,1003.55,VALID,0,INVALID,163.693,VALID,0.100563,VALID,24.8327,VALID,297,VALID,0,
2011-06-18, 03:26:04,VALID,1003.57,VALID,0,INVALID,163.723,VALID,0,VALID,24.8327,VALID,312,VALID,0,
2011-06-18, 03:27:04,VALID,1003.55,VALID,0,INVALID,163.678,VALID,0,VALID,24.8522,VALID,336,VALID,0,
2011-06-18, 03:28:04,VALID,1003.54,VALID,0,INVALID,163.716,VALID,0,VALID,24.8113,VALID,336,VALID,0,
2011-06-18, 03:29:04,VALID,1003.54,VALID,0,INVALID,163.685,VALID,0,VALID,24.8522,VALID,338,VALID,0,
2011-06-18, 03:30:04,VALID,1003.55,VALID,0,INVALID,163.678,VALID,0,VALID,24.8522,VALID,338,VALID,0,
2011-06-18, 03:31:04,VALID,1003.52,VALID,0,INVALID,163.685,VALID,0,VALID,24.8327,VALID,340,VALID,0,
2011-06-18, 03:32:04,VALID,1003.51,VALID,0,INVALID,163.701,VALID,0,VALID,24.8327,VALID,308,VALID,0,
2011-06-18, 03:33:04,VALID,1003.51,VALID,0,INVALID,163.693,VALID,0,VALID,24.8716,VALID,339,VALID,0,
2011-06-18, 03:34:04,VALID,1003.47,VALID,0,INVALID,163.693,VALID,0,VALID,24.8911,VALID,308,VALID,0,
2011-06-18, 03:35:04,VALID,1003.48,VALID,0,INVALID,163.708,VALID,0,VALID,24.9282,VALID,275,VALID,0,
2011-06-18, 03:36:04,VALID,1003.49,VALID,0,INVALID,163.662,VALID,0,VALID,24.9885,VALID,359,VALID,0,
2011-06-18, 03:37:04,VALID,1003.42,VALID,0,INVALID,163.678,VALID,0,VALID,24.9671,VALID,339,VALID,0,
2011-06-18, 03:38:04,VALID,1003.44,VALID,0,INVALID,163.655,VALID,0,VALID,25.0469,VALID,339,VALID,0,
2011-06-18, 03:39:04,VALID,1003.43,VALID,0,INVALID,163.67,VALID,0,VALID,25.0663,VALID,315,VALID,0,
2011-06-18, 03:40:04,VALID,1003.43,VALID,0,INVALID,163.662,VALID,0,VALID,25.1072,VALID,315,VALID,0,
2011-06-18, 03:41:04,VALID,1003.42,VALID,0,INVALID,163.678,VALID,0,VALID,25.1053,VALID,280,VALID,0,
2011-06-18, 03:42:04,VALID,1003.44,VALID,0,INVALID,163.655,VALID,0,VALID,25.1832,VALID,334,VALID,0,
2011-06-18, 03:43:04,VALID,1003.41,VALID,0,INVALID,163.617,VALID,0,VALID,25.2221,VALID,353,VALID,0,
2011-06-18, 03:44:04,VALID,1003.42,VALID,0,INVALID,163.632,VALID,0,VALID,25.2221,VALID,354,VALID,0,
2011-06-18, 03:45:04,VALID,1003.42,VALID,0,INVALID,163.67,VALID,0,VALID,25.2027,VALID,329,VALID,0,
2011-06-18, 03:46:04,VALID,1003.41,VALID,0,INVALID,163.662,VALID,0,VALID,25.2221,VALID,331,VALID,0,
2011-06-18, 03:47:04,VALID,1003.39,VALID,0,INVALID,163.632,VALID,0,VALID,25.2221,VALID,317,VALID,0,
2011-06-18, 03:48:04,VALID,1003.43,VALID,0,INVALID,163.617,VALID,0,VALID,25.263,VALID,317,VALID,0,
2011-06-18, 03:49:04,VALID,1003.42,VALID,0,INVALID,163.655,VALID,0,VALID,25.263,VALID,338,VALID,0,
2011-06-18, 03:50:04,VALID,1003.4,VALID,0,INVALID,163.655,VALID,0,VALID,25.2416,VALID,308,VALID,0,
2011-06-18, 03:51:04,VALID,1003.37,VALID,0,INVALID,163.662,VALID,0,VALID,25.2416,VALID,332,VALID,0,